Regional Weather Roundup
Issued by NWS Albany, NY

Home | Current Version | Previous Version | Text Only | Print | Product List | Glossary On
Versions: 1 2 3 4 5 6 7 8 9 10 11 12 13 14 15 16 17 18 19 20 21 22 23 24 25 26 27 28 29 30 31 32 33 34 35 36 37 38 39 40 41 42 43 44 45 46 47 48 49 50
000
ASUS41 KALY 210410
RWRALY

NEW YORK STATE HOURLY WEATHER ROUNDUP
NATIONAL WEATHER SERVICE ALBANY NY
1200 AM EDT SUN SEP 21 2014

NOTE: "FAIR" INDICATES FEW OR NO CLOUDS BELOW 12,000 FEET WITH NO
SIGNIFICANT WEATHER AND/OR NO OBSTRUCTIONS TO VISIBILITY.

NYZ032-033-038>043-046>054-057>066-NYZ062>081-210500-
EAST


CITY           SKY/WX    TMP DP  RH WIND       PRES   REMARKS
ALBANY         CLEAR     65  56  72 S16G23    30.02S
GLENS FALLS    CLOUDY    65  56  72 S8        30.01S
POUGHKEEPSIE   CLEAR     61  59  93 SE3       30.06F
NEWBURGH       CLEAR     64  61  88 S6        30.09S
MONTGOMERY     PTCLDY    55  53  93 CALM      30.08S FOG
WHITE PLAINS   LGT RAIN  65  62  90 CALM      30.08S
ISLIP          CLOUDY    66  64  94 SE6       30.06F
NEW YORK CITY  CLOUDY    70  63  78 S5        30.06S
CENTRAL PARK   CLOUDY    70  62  76 CALM      30.09S
$$

NYZ005>009-017-018-044>046-055-056-210500-
CENTRAL


CITY           SKY/WX    TMP DP  RH WIND       PRES   REMARKS
FULTON         PTCLDY    68  57  68 S13       29.90F
SYRACUSE       MOCLDY    70  57  63 S23G33    29.91F
ROME           CLOUDY    66  57  72 SE7       29.97S
ELMIRA         CLEAR     67  58  72 SW6G22    29.97S
BINGHAMTON     CLEAR     63  56  78 S13G20    30.02S
MONTICELLO     CLEAR     57  55  94 CALM      30.11S
$$

NYZ026>034-041>043-210500-
NORTH


CITY           SKY/WX    TMP DP  RH WIND       PRES   REMARKS
WATERTOWN      PTCLDY    71  56  58 S14G25    29.84F
FORT DRUM      NOT AVBL
MASSENA        MOCLDY    70  59  68 S17G29    29.81F
SARANAC LAKE   PTCLDY    61  55  81 SW18G24   29.91F
PLATTSBURGH    PTCLDY    64  57  78 S18       29.88F
$$

NYZ001>004-010>016-019>021-210500-
WEST


CITY           SKY/WX    TMP DP  RH WIND       PRES   REMARKS
NIAGARA FALLS  MOCLDY    73  60  63 S22G31    29.78F
BUFFALO        MOCLDY    72  59  63 S22G29    29.81F
DUNKIRK        MOCLDY    72  60  66 S22G37    29.82F
JAMESTOWN      PTCLDY    66  59  77 S10       29.91F
WELLSVILLE     MOCLDY    65  56  72 S13G21    29.98F
ROCHESTER      PTCLDY    69  60  73 S14       29.84F
PENN YAN       CLEAR     67  57  70 S10       29.93F
$$

             KEY
       WCI = WIND CHILL INDEX
       VSB = VISIBILITY
       HX  = HEAT INDEX
$$



USA.gov is the U.S. government's official web portal to all federal, state and local government web resources and services.